ELECTRON KICK STAGE R/B, 45111

Orbit data source: Space-Track

ELECTRON KICK STAGE R/B, 45111 is space debris in LEO originally from a launch on Fri, 31 Jan 2020 UTC launched from the Rocket Lab Launch Complex (RLLC). Debris objects in space refer to the collection of defunct objects orbiting the Earth. Examples of debris include non-operational satellites, rocket bodies, and fragments generated from explosions, collisions, or faulty payload assembly.

Loading next visibility...
Identifier
45111, 2020-007B
Orbit
LEO
Country
Flag of USUS
Related business
Manufacturer
Rocket Lab
Mission
Spacecraft
Bus & Motor
KICK STAGE, CURIE
Mass
40 kg wet, 40 kg dry
Launch date (UTC)
2020-01-31 (6 years ago)
Launch vehicle
Unknown
Launch site
Rocket Lab Launch Complex (RLLC)
Object type
Payload
Rocket body
Debris
Shape & HBR
Trunc Cone, 0.7 m
Radar Cross Section
0.760 m², Medium (>0.1 m² and < 1m²)

Expand to show TLE details & history
Last TLE update: 1 day ago

TLE from 1 day ago
0 ELECTRON KICK STAGE R/B
1 45111U 20007B   25261.11595578  .00035898  00000-0  78457-3 0  9995
2 45111  69.9806 300.0459 0007298 356.2551   3.8576 15.43981718 75037
Epoch: 2025-09-18T02:46Z
TLE epoch observation values (Epoch: 2025-09-18T02:46:58.579Z)
Latitude
0.00004°
Longitude
-98.98034°
Altitude
431.882 km
Speed
7.656 km/s
True Right ascension
20h 00m 11s
True Declination
0° 00' 00"
Sunlit
Object was in full shadow at epoch
Visualization orbit readout
Latitude
Unknown
Longitude
Unknown
Altitude
Unknown
Speed
Unknown
Apparent Right ascension
Unknown
Apparent Declination
Unknown
Sunlit
N/A
Visualization observer readout
Local Sidereal Time
20:26:29
Azimuth
Unknown
Elevation
Unknown
Doppler factor
Unknown
Orbital elements
Apogee altitude
437.251 km
Perigee altitude
427.31 km
Semi-major axis
6,810.417 km
Eccentricity
0.00073
Inclination
69.9806°
RAAN
300.0459°
Arg. of periapsis
356.2551°
True anomaly
3.86323°
Mean anomaly
3.8576°
Eccentric anomaly
3.86042°
Mean motion
3.86174 °/min
Orbital period
93.22 mins
BSTAR
0.00078457
Loading maneuver chart data...
Computing Atmospheric mass density...
Loading historical data...
Loading historical data...
Loading historical data...
Loading historical data...
Loading historical data...
Loading historical data...
Loading historical data...
Other satellites on launch #7 in the year 2020 (2020-01-31 UTC)

Documentation

Showing up to 5 results
|